Regional Weather Roundup
Issued by NWS

Home | Current Version | Previous Version | Graphics & Text | Print | Product List | Glossary On
Versions: 1 2 3 4 5 6 7 8 9 10 11 12 13 14 15 16 17 18 19 20 21 22 23 24 25 26 27 28 29 30 31 32 33 34 35 36 37 38 39 40 41 42 43 44 45 46 47 48 49 50
000
ASUS45 KBOI 021410
RWRID

IDAHO REGIONAL WEATHER ROUNDUP
NATIONAL WEATHER SERVICE BOISE ID
800 AM MDT THU JUL 02 2015

NOTE: "FAIR" INDICATES FEW OR NO CLOUDS BELOW 12000 FEET
WITH NO SIGNIFICANT WEATHER AND/OR OBSTRUCTIONS TO VISIBILITY

IDZ012-014-021500-
SOUTHWEST IDAHO


CITY           SKY/WX    TMP DP  RH WIND       PRES   REMARKS
BOISE          SUNNY     74  43  32 SE5       30.01R
CALDWELL       SUNNY     72  46  40 CALM      30.01R
MOUNTAIN HOME  SUNNY     78  45  31 NW12      30.00R
$$

IDZ016-017-021500-
SOUTHCENTRAL IDAHO


CITY           SKY/WX    TMP DP  RH WIND       PRES   REMARKS
BURLEY         MOSUNNY   68  55  63 CALM      30.08R
JEROME         MOSUNNY   72  47  40 E5        30.08R
TWIN FALLS     MOSUNNY   77  40  26 S9        30.07R
$$

IDZ019>023-021500-
SOUTHEAST IDAHO


CITY           SKY/WX    TMP DP  RH WIND       PRES   REMARKS
IDAHO FALLS    SUNNY     65  54  67 N8        30.14R
POCATELLO      SUNNY     69  58  67 E3        30.12R
REXBURG        SUNNY     64  53  67 NE6       30.15R
$$

IDZ006-010-011-018-031-032-021500-
CENTRAL IDAHO MOUNTAINS


CITY           SKY/WX    TMP DP  RH WIND       PRES   REMARKS
MCCALL         SUNNY     58  45  62 CALM      30.17S
HAILEY         MOSUNNY   64  39  39 NW10      30.20R
STANLEY          N/A     50  37  61 CALM      30.32R
SALMON         SUNNY     57  46  67 CALM      30.16R
CHALLIS        SUNNY     65  41  41 CALM      30.20R
$$

IDZ002-004-006-007-026-021500-
NORTHERN IDAHO


CITY           SKY/WX    TMP DP  RH WIND       PRES   REMARKS
LEWISTON       SUNNY     73  51  46 E6        29.99R
LOWELL           N/A     60  53  77 CALM      30.07S
COEUR D`ALENE  SUNNY     70  54  56 NE9       30.04R
MULLAN PASS    SUNNY     62  44  51 SE8       30.25S
$$


USA.gov is the U.S. government's official web portal to all federal, state and local government web resources and services.